Location: Axtheid
(49.6213°N, 11.8205°E)
Time: 08:30:26
(UTC+00:00)

Meteor 2-10 Rocket - Visible Passes

Search period start: 13 May 2021 00:00
Search period end: 23 May 2021 00:00
Orbit: 735 x 884 km, 81.2° (Epoch: 12 May)

Date Brightness Start Highest point End Pass type
(mag) Time Alt. Az. Time Alt. Az. Time Alt. Az.
13 May 5.4 01:29:32 10° N 01:34:47 34° ENE 01:39:51 10° SE visible
14 May 5.8 01:05:25 10° N 01:10:14 27° ENE 01:14:55 10° ESE visible
14 May 3.9 02:47:06 10° NNW 02:52:43 57° W 02:58:07 10° S visible
15 May 6.1 00:41:23 10° NNE 00:45:39 21° ENE 00:49:47 10° ESE visible
15 May 3.7 02:22:40 10° NNW 02:28:25 76° W 02:33:55 10° S visible
16 May 6.3 00:17:31 10° NNE 00:21:00 16° NE 00:24:24 10° E visible
16 May 3.8 01:58:18 10° N 02:04:04 82° ENE 02:09:35 10° SSE visible
16 May 6.4 23:53:56 10° NNE 23:56:18 12° NE 23:58:37 10° ENE visible
17 May 4.2 01:33:59 10° N 01:39:41 62° ENE 01:45:07 10° SSE visible
18 May 4.7 01:09:43 10° N 01:15:14 47° ENE 01:20:30 10° SE visible
19 May 5.1 00:45:31 10° N 00:50:45 36° ENE 00:55:45 10° SE visible
19 May 4.2 02:27:37 10° NNW 02:32:51 39° W 02:37:52 10° SSW visible
20 May 5.5 00:21:23 10° N 00:26:12 28° ENE 00:30:50 10° ESE visible
20 May 3.9 02:03:08 10° NNW 02:08:36 53° W 02:13:51 10° S visible
20 May 5.9 23:57:20 10° N 00:01:36 21° ENE 00:05:44 10° ESE visible
21 May 3.6 01:38:41 10° NNW 01:44:19 71° W 01:49:41 10° S visible
21 May 6.1 23:33:26 10° NNE 23:36:58 17° ENE 23:40:24 10° E visible
22 May 3.7 01:14:19 10° NNW 01:19:59 87° ENE 01:25:22 10° SSE visible
22 May 6.2 23:09:50 10° NNE 23:12:16 13° NE 23:14:40 10° ENE visible
